Location: Unspecified
(0.0000°N, 0.0000°E)
Time: 10:04:27
(UTC+01:00)

Iridium 39 - Visible Passes

Search period start: 24 November 2017 00:00
Search period end: 04 December 2017 00:00
Orbit: 723 x 752 km, 86.4° (Epoch: 23 November)

Date Brightness Start Highest point End Pass type
(mag) Time Alt. Az. Time Alt. Az. Time Alt. Az.
24 Nov 7.8 04:47:58 10° NNE 04:52:10 28° E 04:56:23 10° SSE visible
25 Nov 6.1 05:41:57 10° NNW 05:46:40 46° W 05:51:24 10° SSW visible
26 Nov 6.6 04:57:36 15° NNE 05:01:33 52° E 05:06:24 10° SSE visible
27 Nov 8.5 04:13:30 10° NE 04:16:29 16° E 04:19:30 10° SE visible
27 Nov 6.9 05:53:12 15° NW 05:56:04 25° W 06:00:06 10° SW visible
28 Nov 5.7 05:09:01 38° N 05:10:57 83° W 05:15:57 10° S visible
29 Nov 7.6 04:24:46 27° ENE 04:25:52 30° E 04:30:11 10° SSE visible
29 Nov 7.5 06:04:27 13° WNW 06:05:29 13° W 06:07:51 10° WSW visible
30 Nov 6.2 05:20:08 43° W 05:20:21 43° W 05:25:06 10° SSW visible
01 Dec 6.5 04:35:45 53° ESE 04:35:45 53° ESE 04:40:09 10° SSE visible
02 Dec 8.5 03:51:19 16° ESE 03:51:19 16° ESE 03:53:24 10° SE visible
02 Dec 7.3 05:31:01 21° WSW 05:31:01 21° WSW 05:33:44 10° SW visible
03 Dec 6.8 04:46:32 39° S 04:46:32 39° S 04:49:40 10° S visible
